{"data":{"norad_id":68717,"intl_designator":"2026-081U","name":"STARLINK-36685","alt_names":[],"object_type":"PAYLOAD","status":"ACTIVE","operator":null,"country":"US","launch_date":"2026-04-14","launch_site_code":"AFETR","launch_vehicle":null,"mission":null,"orbit_class":"UNKNOWN","rcs_meters":null,"size_class":null,"mass_kg":null,"dimensions":null,"purposes":["comms"],"wikipedia_slug":null,"has_3d_model":false,"image_url":null,"decayed_at":null,"tle_current":{"epoch":"2026-05-25T04:00:03.998880Z","epoch_age_seconds":61459,"freshness":"FRESH","line1":"1 68717U 26081U   26145.16671295 -.01823266  00000+0 -47053-1 0  9990","line2":"2 68717  53.1598  38.9828 0001592  78.7673 154.1228 15.41814281  6010","mean_motion":15.41814281,"eccentricity":0.0001592,"inclination_deg":53.1598,"raan_deg":38.9828,"arg_perigee_deg":78.7673,"mean_anomaly_deg":154.1228,"bstar":-0.047053,"rev_number":601,"period_min":93.396462709246,"perigee_km":439.66922315255,"apogee_km":441.84035829871,"semimajor_km":6818.8917907256,"source":"CELESTRAK","updated_at":"2026-05-25T13:38:22.001627Z"}}}